Regional Weather Roundup
Issued by NWS

Home | Current Version | Previous Version | Text Only | Print | Product List | Glossary On
Versions: 1 2 3 4 5 6 7 8 9 10 11 12 13 14 15 16 17 18 19 20 21 22 23 24 25 26 27 28 29 30 31 32 33 34 35 36 37 38 39 40 41 42 43 44 45 46 47 48 49 50
000
ASUS42 KFFC 170110
RWRGA
WEATHER ROUNDUP FOR GEORGIA
NATIONAL WEATHER SERVICE PEACHTREE CITY GA
800 PM EST MON JAN 16 2017

NOTE: "FAIR" INDICATES FEW OR NO CLOUDS BELOW 12,000 FEET WITH NO
SIGNIFICANT WEATHER AND/OR OBSTRUCTIONS TO VISIBILITY.

* = USE WITH CAUTION. THE STATIONS MARKED WITH AN ASTERISK MAY NOT
REPORT WEATHER SUCH AS PRECIPITATION, FOG, OR THUNDER AND ARE NOT
QUALITY CONTROLLED BY NWS.

THE REMARK "TC" DENOTES TEMPERATURE READING IN DEGREES CELSIUS.

GAZ001>058-170200-
NORTH GEORGIA

CITY           SKY/WX    TMP DP  RH WIND       PRES   REMARKS
ATLANTA        MOCLDY    66  55  67 SE7       30.24R
ATHENS         CLOUDY    56  54  93 E8        30.28S
CHAMBLEE       CLOUDY    60  53  77 E5        30.25R
PEACHTREE CITY PTCLDY    59  54  83 SE5       30.24R
ROME           MOCLDY    63  54  72 SE5       30.21R
WEST ATLANTA   CLOUDY    63  54  72 E7        30.24R
CARTERSVILLE   CLOUDY    61  54  77 E7        30.24R


CITY           SKY/WX    TMP DP  RH WIND       PRES   REMARKS
DALTON*        MOCLDY    59  54  82 S6        30.22S
LAWRENCEVILLE* CLEAR     59  54  82 E7        30.24F
MARIETTA       MOCLDY    60  54  78 E7        30.24S
KENNESAW*      PTCLDY    59  54  82 SE7         N/A
CANTON*        CLOUDY    55  50  82 E5        30.28R
$$

GAZ059>098-102>109-170200-
CENTRAL GEORGIA

CITY           SKY/WX    TMP DP  RH WIND       PRES   REMARKS
AUGUSTA-BUSH   PTCLDY    58  54  86 E3        30.29S
AUGUSTA-DANIEL CLOUDY    59  54  83 NE6       30.30S
COLUMBUS       CLEAR     65  53  65 SE5       30.22R
MACON          MOCLDY    62  52  69 CALM      30.24S
ROBINS AFB     MOCLDY    61  53  76 CALM      30.23S


CITY           SKY/WX    TMP DP  RH WIND       PRES   REMARKS
LAGRANGE*      CLEAR     64  58  82 CALM      30.22S
SYLVANIA*      PTCLDY   N/A N/A N/A SE5       30.29S
MILLEDGEVILLE* MOCLDY    63  59  88 E5        30.26R
$$

GAZ099>101-110>166-170200-
SOUTH GEORGIA

CITY           SKY/WX    TMP DP  RH WIND       PRES   REMARKS
SAVANNAH       FOG       61  58  90 E8        30.30R VSB 1/2
VALDOSTA       MOCLDY    59  53  80 CALM      30.25R
ALMA           MOCLDY    67  60  78 E7        30.27R
ST SIMONS      FOG       59  59 100 NE8       30.28S VSB 1/2
FT STEWART     CLOUDY    60  58  92 E5        30.27S
ALBANY         CLEAR     61  54  77 CALM      30.26R
HUNTER AFB     CLOUDY    59  59 100 E8        30.28R
MOODY AFB      MOCLDY    66  52  60 CALM      30.24R
BRUNSWICK      FOG       61  61 100 NE8       30.30R VSB 1/2


CITY           SKY/WX    TMP DP  RH WIND       PRES   REMARKS
BAINBRIDGE*    CLEAR     63  54  72 S5        30.24R
MOULTRIE*      PTCLDY    61  55  82 CALM      30.26R
VIDALIA*       PTCLDY    68  63  83 SE7       30.27R
WAYCROSS*      MOCLDY    69  65  85 SE8       30.27R
DOUGLAS*       PTCLDY    61  52  72 CALM      30.27R
$$




USA.gov is the U.S. government's official web portal to all federal, state and local government web resources and services.